Location: Unspecified
(0.0000°N, 0.0000°E)
Time: 04:53:33
(UTC+00:00)

Vanguard 2 Rocket - Visible Passes

Search period start: 18 June 2019 00:00
Search period end: 28 June 2019 00:00
Orbit: 554 x 3326 km, 32.9° (Epoch: 17 June)

Date Brightness Start Highest point End Pass type
(mag) Time Alt. Az. Time Alt. Az. Time Alt. Az.
18 Jun 10.9 01:33:37 10° NNW 01:44:06 18° NNE 01:56:05 10° NE visible
18 Jun 10.6 03:49:10 10° NNW 04:06:48 38° NNE 04:22:59 10° E visible
18 Jun 8.6 19:56:44 10° W 20:01:46 33° NNW 20:09:46 10° NE visible
18 Jun 10.3 22:14:13 10° NW 22:19:04 14° N 22:25:12 10° NNE visible
19 Jun 10.8 00:33:16 10° NNW 00:40:40 15° N 00:49:23 10° NE visible
19 Jun 10.8 02:48:22 10° NNW 03:03:40 29° NNE 03:19:32 10° E visible
19 Jun 10.0 05:04:12 10° NW 05:24:27 63° NE 05:40:21 10° ESE visible
19 Jun 7.6 18:57:21 10° WSW 19:01:53 50° NNW 19:09:01 10° NE visible
19 Jun 9.9 21:13:17 10° NW 21:17:43 16° NNW 21:23:32 10° NNE visible
19 Jun 10.7 23:33:14 10° NNW 23:37:40 12° N 23:42:45 10° NNE visible
20 Jun 10.9 01:48:02 10° NNW 02:00:24 22° NNE 02:14:30 10° ENE visible
20 Jun 10.3 04:02:51 10° NW 04:21:49 50° NNE 04:38:55 10° ESE visible
20 Jun 9.5 20:12:46 10° WNW 20:16:58 19° NNW 20:22:45 10° NNE visible
20 Jun 10.6 22:33:36 10° N 22:35:16 10° N 22:37:04 10° N visible
21 Jun 10.9 00:48:15 10° NNW 00:57:12 17° NNE 01:07:52 10° NE visible
21 Jun 10.5 03:02:06 10° NNW 03:18:58 39° NNE 03:36:20 10° E visible
21 Jun 9.7 05:18:09 10° NW 05:38:51 83° NE 05:55:03 10° ESE visible
21 Jun 8.8 19:12:43 10° W 19:16:44 25° NNW 19:22:27 10° NNE visible
21 Jun 10.8 23:49:17 10° N 23:54:15 12° NNE 23:59:57 10° NE visible
22 Jun 10.7 02:01:53 10° NNW 02:16:05 29° NNE 02:32:18 10° E visible
22 Jun 9.9 04:16:37 10° NW 04:36:23 66° NE 04:54:08 10° ESE visible
22 Jun 10.0 20:31:10 10° NNW 20:32:28 10° NNW 20:33:52 10° N visible
23 Jun 10.7 01:02:16 10° NNW 01:13:15 21° NNE 01:26:35 10° ENE visible
23 Jun 10.2 03:15:46 10° NW 03:33:45 51° NE 03:52:15 10° ESE visible
23 Jun 9.6 05:32:28 10° WNW 05:53:02 77° SW 06:09:19 10° SE visible
23 Jun 9.6 19:29:31 10° NW 19:31:55 13° NNW 19:34:45 10° N visible
24 Jun 10.8 00:03:27 10° N 00:10:34 15° NNE 00:19:08 10° NE visible
24 Jun 10.3 02:15:32 10° NNW 02:31:08 39° NNE 02:49:08 10° E visible
24 Jun 9.7 04:30:37 10° NW 04:50:41 85° NE 05:08:47 10° SE visible
24 Jun 9.0 18:28:48 10° WNW 18:31:50 18° NNW 18:35:35 10° NNE visible
25 Jun 10.5 01:15:55 10° NNW 01:28:39 29° NNE 01:44:31 10° E visible
25 Jun 9.8 03:29:34 10° NW 03:48:09 68° NE 04:07:25 10° ESE visible
26 Jun 10.6 00:16:57 10° NNW 00:26:20 20° NNE 00:38:15 10° ENE visible
26 Jun 10.0 02:29:12 10° NW 02:45:42 52° NE 03:05:02 10° ESE visible
26 Jun 9.6 04:44:59 10° WNW 05:04:52 75° SW 05:22:59 10° SE visible
26 Jun 10.6 23:19:21 10° N 23:24:12 13° NNE 23:29:54 10° NE visible
27 Jun 10.1 01:29:28 10° NNW 01:43:26 39° NE 02:01:25 10° E visible
27 Jun 9.5 03:43:37 10° NW 04:02:22 87° NE 04:22:00 10° SE visible
